period_start,C,m1,H,J0,J1,J2,J3,J4,J5,JA,JB,JC,JD,JJ,JK,JN,#
2013-10-10 00:00:19,0.00,0.95,0.00,26.00,27.90,30.49,5.93,30.00,1006.85,2044.96,3114.95,3064.29,3327.99,349.94,317.59,26.22,0000 0000 0000 0000 000000
2013-10-10 00:01:19,0.00,0.95,0.00,25.95,27.90,30.51,5.97,30.00,1006.86,2044.96,3114.95,3064.18,3327.99,350.68,318.31,26.23,0000 0000 0000 0000 000000
2013-10-10 00:02:19,0.02,0.95,0.00,25.94,27.90,30.47,5.71,30.00,1006.88,2044.95,3114.93,3064.11,3327.99,348.80,316.48,26.23,0000 0000 0000 0000 000000
2013-10-10 00:03:20,0.03,0.95,0.00,25.95,27.90,30.46,5.73,29.92,1006.86,2044.95,3114.92,3064.11,3327.99,349.56,317.19,26.24,0000 0000 0000 0000 000000
2013-10-10 00:04:20,-0.01,0.95,0.00,25.97,27.90,30.48,5.83,30.00,1006.85,2044.97,3114.94,3064.10,3327.99,350.02,317.80,26.25,0000 0000 0000 0000 000000
2013-10-10 00:05:20,0.01,0.95,0.00,25.97,27.90,30.53,5.89,29.83,1006.86,2044.97,3114.86,3064.08,3327.99,350.07,317.73,26.25,0000 0000 0000 0000 000000
2013-10-10 00:06:20,0.00,0.95,0.00,25.96,27.89,30.48,5.75,29.96,1006.86,2044.93,3114.75,3064.06,3327.99,350.13,317.80,26.26,0000 0000 0000 0000 000000
2013-10-10 00:07:21,0.00,0.95,0.00,25.94,27.88,30.54,5.65,29.63,1006.86,2044.94,3114.74,3064.08,3327.99,349.21,317.10,26.26,0000 0000 0000 0000 000000
2013-10-10 00:08:21,0.01,0.95,0.00,25.94,27.88,30.49,5.70,29.79,1006.86,2044.96,3114.73,3064.13,3327.99,349.53,317.27,26.27,0000 0000 0000 0000 000000
2013-10-10 00:09:21,-0.01,0.95,0.00,25.94,27.87,30.44,5.78,29.79,1006.85,2044.96,3114.82,3064.19,3327.99,350.10,317.79,26.28,0000 0000 0000 0000 000000
2013-10-10 00:10:22,-0.02,0.95,0.00,25.93,27.87,30.45,5.83,29.63,1006.86,2044.95,3114.79,3064.15,3327.99,349.45,316.70,26.28,0000 0000 0000 0000 000000
2013-10-10 00:11:22,-0.00,0.95,0.00,25.94,27.87,30.47,5.78,29.96,1006.85,2044.97,3114.83,3064.22,3327.99,349.38,317.45,26.29,0000 0000 0000 0000 000000
2013-10-10 00:12:22,0.01,0.95,0.00,25.93,27.87,30.47,6.01,30.13,1006.86,2044.98,3114.86,3064.17,3327.99,350.49,318.16,26.29,0000 0000 0000 0000 000000
2013-10-10 00:13:22,0.01,0.95,0.00,25.93,27.87,30.47,5.99,29.96,1006.90,2044.99,3114.84,3064.21,3327.99,350.83,318.31,26.30,0000 0000 0000 0000 000000
2013-10-10 00:14:23,0.01,0.95,0.00,25.93,27.87,30.44,5.77,29.96,1006.87,2044.98,3114.83,3064.20,3327.99,348.92,316.51,26.30,0000 0000 0000 0000 000000
2013-10-10 00:15:23,-0.02,0.95,0.00,25.96,27.87,30.41,5.84,30.04,1006.87,2044.98,3114.84,3064.29,3327.99,349.84,317.52,26.31,0000 0000 0000 0000 000000
2013-10-10 00:16:23,-0.03,0.95,0.00,25.97,27.87,30.47,6.03,30.25,1006.87,2044.99,3114.87,3064.36,3327.99,350.84,318.44,26.32,0000 0000 0000 0000 000000
2013-10-10 00:17:23,-0.01,0.95,0.00,25.95,27.87,30.42,6.10,30.25,1006.88,2044.99,3114.90,3064.35,3327.99,350.96,318.75,26.32,0000 0000 0000 0000 000000
2013-10-10 00:18:24,-0.00,0.95,0.00,25.93,27.86,30.45,5.88,30.08,1006.87,2044.99,3114.92,3064.37,3327.99,350.20,317.91,26.33,0000 0000 0000 0000 000000
2013-10-10 00:19:24,0.01,0.95,0.00,25.94,27.85,30.51,6.04,30.21,1006.89,2044.99,3114.92,3064.33,3327.99,351.43,319.16,26.33,0000 0000 0000 0000 000000
2013-10-10 00:20:24,-0.01,0.95,0.00,25.94,27.85,30.43,6.05,30.17,1006.89,2044.99,3114.87,3064.45,3327.99,350.86,318.81,26.34,0000 0000 0000 0000 000000
2013-10-10 00:21:24,-0.02,0.95,0.00,25.94,27.85,30.45,6.06,30.08,1006.91,2044.99,3114.91,3064.53,3327.99,350.30,318.32,26.35,0000 0000 0000 0000 000000
2013-10-10 00:22:25,-0.01,0.95,0.00,25.93,27.85,30.46,5.69,29.96,1006.91,2044.99,3114.92,3064.50,3327.99,350.11,317.74,26.35,0000 0000 0000 0000 000000
2013-10-10 00:23:25,0.00,0.95,0.00,25.91,27.85,30.48,5.76,29.88,1006.95,2044.99,3114.92,3064.49,3327.99,350.11,317.87,26.36,0000 0000 0000 0000 000000
2013-10-10 00:24:25,-0.01,0.95,0.00,25.90,27.85,30.42,5.90,30.29,1006.90,2044.99,3114.94,3064.59,3327.99,350.16,317.90,26.36,0000 0000 0000 0000 000000
2013-10-10 00:25:25,-0.02,0.95,0.00,25.89,27.85,30.42,6.00,30.13,1006.90,2044.99,3114.97,3064.66,3327.99,350.85,318.54,26.37,0000 0000 0000 0000 000000
2013-10-10 00:26:26,-0.01,0.95,0.00,25.88,27.85,30.42,5.87,29.96,1006.88,2044.99,3114.95,3064.65,3327.99,349.72,317.52,26.37,0000 0000 0000 0000 000000
2013-10-10 00:27:26,0.01,0.95,0.00,25.89,27.85,30.42,5.88,30.29,1006.88,2044.99,3114.93,3064.63,3327.99,350.57,318.03,26.38,0000 0000 0000 0000 000000
2013-10-10 00:28:26,0.01,0.95,0.00,25.90,27.85,30.44,6.02,30.29,1006.86,2044.99,3114.87,3064.48,3327.99,350.84,318.18,26.39,0000 0000 0000 0000 000000
2013-10-10 00:29:26,0.01,0.95,0.00,25.91,27.84,30.44,5.71,30.04,1006.88,2044.99,3114.91,3064.58,3328.00,349.69,317.46,26.39,0000 0000 0000 0000 000000
2013-10-10 00:30:27,-0.01,0.95,0.00,25.91,27.83,30.43,5.90,30.04,1006.88,2044.99,3114.94,3064.56,3328.00,350.59,317.85,26.40,0000 0000 0000 0000 000000
2013-10-10 00:31:27,-0.02,0.95,0.00,25.89,27.83,30.47,5.94,29.92,1006.89,2044.99,3114.95,3064.69,3328.01,348.90,316.75,26.40,0000 0000 0000 0000 000000
2013-10-10 00:32:27,-0.01,0.95,0.00,25.89,27.82,30.46,5.90,30.17,1006.88,2044.99,3114.93,3064.74,3328.00,350.19,318.03,26.41,0000 0000 0000 0000 000000
2013-10-10 00:33:27,-0.01,0.95,0.00,25.89,27.82,30.44,5.89,30.38,1006.91,2044.99,3114.89,3064.72,3328.00,349.78,317.37,26.42,0000 0000 0000 0000 000000
2013-10-10 00:34:28,0.01,0.95,0.00,25.89,27.82,30.43,5.74,30.17,1006.87,2044.99,3114.84,3064.57,3328.00,349.29,316.35,26.42,0000 0000 0000 0000 000000
2013-10-10 00:35:28,0.02,0.95,0.00,25.89,27.82,30.44,5.79,29.88,1006.88,2044.99,3114.77,3064.49,3328.00,350.04,317.68,26.43,0000 0000 0000 0000 000000
2013-10-10 00:36:28,0.02,0.95,0.00,25.90,27.82,30.39,5.80,29.92,1006.94,2044.99,3114.72,3064.59,3328.00,349.35,317.18,26.43,0000 0000 0000 0000 000000
2013-10-10 00:37:28,-0.03,0.95,0.00,25.89,27.82,30.43,5.73,29.71,1006.90,2044.99,3114.85,3064.77,3328.01,349.82,317.60,26.44,0000 0000 0000 0000 000000
2013-10-10 00:38:29,-0.05,0.95,0.00,25.88,27.82,30.39,6.06,29.92,1006.93,2044.99,3114.83,3064.78,3328.00,351.23,318.91,26.45,0000 0000 0000 0000 000000
2013-10-10 00:39:29,0.00,0.95,0.00,25.91,27.82,30.46,5.72,29.75,1006.94,2044.99,3114.84,3064.74,3328.00,348.84,316.82,26.45,0000 0000 0000 0000 000000
2013-10-10 00:40:29,0.01,0.95,0.00,25.90,27.82,30.44,5.95,30.00,1006.93,2045.00,3114.87,3064.76,3328.01,350.42,318.15,26.46,0000 0000 0000 0000 000000
2013-10-10 00:41:30,0.02,0.95,0.00,25.88,27.82,30.45,5.85,30.13,1006.99,2045.01,3114.65,3064.62,3328.01,350.01,317.62,26.46,0000 0000 0000 0000 000000
2013-10-10 00:42:30,0.06,0.95,0.00,25.90,27.82,30.48,5.96,30.21,1006.97,2045.00,3114.46,3064.52,3328.00,350.27,318.14,26.47,0000 0000 0000 0000 000000
2013-10-10 00:43:30,0.01,0.95,0.00,25.91,27.81,30.43,5.92,30.17,1006.94,2045.01,3114.58,3064.69,3328.00,349.80,317.58,26.47,0000 0000 0000 0000 000000
2013-10-10 00:44:30,-0.03,0.95,0.00,25.92,27.80,30.41,5.60,30.17,1006.97,2045.00,3114.70,3064.80,3328.00,349.21,317.05,26.48,0000 0000 0000 0000 000000
2013-10-10 00:45:31,-0.05,0.95,0.00,25.90,27.80,30.45,5.63,29.96,1007.05,2045.00,3114.83,3064.90,3328.03,350.20,317.98,26.49,0000 0000 0000 0000 000000
2013-10-10 00:46:31,-0.03,0.95,0.00,25.91,27.80,30.38,5.68,29.75,1007.02,2045.01,3114.87,3064.92,3328.02,349.48,317.31,26.49,0000 0000 0000 0000 000000
2013-10-10 00:47:31,0.01,0.95,0.00,25.88,27.80,30.35,5.64,29.79,1007.05,2045.02,3114.85,3064.90,3328.02,349.27,317.05,26.50,0000 0000 0000 0000 000000
2013-10-10 00:48:31,0.01,0.95,0.00,25.89,27.80,30.35,5.75,29.96,1007.07,2045.01,3114.81,3064.84,3328.01,349.01,316.93,26.50,0000 0000 0000 0000 000000
2013-10-10 00:49:32,0.03,0.95,0.00,25.89,27.80,30.36,5.88,30.04,1007.04,2045.01,3114.64,3064.77,3328.00,349.57,317.42,26.51,0000 0000 0000 0000 000000
2013-10-10 00:50:32,0.02,0.95,0.00,25.86,27.80,30.40,5.89,29.96,1007.13,2045.00,3114.59,3064.75,3328.00,349.92,317.74,26.52,0000 0000 0000 0000 000000
2013-10-10 00:51:32,0.01,0.95,0.00,25.88,27.80,30.43,6.03,30.08,1007.13,2045.02,3114.57,3064.78,3328.00,350.26,318.09,26.52,0000 0000 0000 0000 000000
2013-10-10 00:52:32,0.02,0.95,0.00,25.87,27.80,30.46,6.01,29.92,1007.09,2045.04,3114.50,3064.75,3328.00,351.07,318.83,26.53,0000 0000 0000 0000 000000
2013-10-10 00:53:32,0.01,0.95,0.00,25.88,27.80,30.38,6.05,30.17,1007.10,2045.02,3114.38,3064.77,3328.00,351.06,318.95,26.53,0000 0000 0000 0000 000000
2013-10-10 00:54:33,0.01,0.95,0.00,25.89,27.79,30.40,5.98,30.08,1007.09,2045.02,3114.25,3064.77,3328.00,350.69,318.01,26.54,0000 0000 0000 0000 000000
2013-10-10 00:55:33,0.01,0.95,0.00,25.90,27.79,30.39,5.97,30.13,1007.12,2045.01,3114.28,3064.76,3328.00,350.32,318.77,26.54,0000 0000 0000 0000 000000
2013-10-10 00:56:34,-0.01,0.95,0.00,25.89,27.79,30.41,6.11,30.08,1007.10,2045.01,3114.28,3064.76,3328.00,350.50,317.72,26.55,0000 0000 0000 0000 000000
2013-10-10 00:57:34,0.00,0.95,0.00,25.89,27.78,30.45,5.90,30.08,1007.05,2045.04,3114.52,3064.84,3328.00,350.43,318.21,26.56,0000 0000 0000 0000 000000
2013-10-10 00:58:34,-0.03,0.95,0.00,25.89,27.78,30.42,5.71,29.83,1007.21,2045.02,3114.56,3064.87,3328.01,348.92,317.48,26.56,0000 0000 0000 0000 000000
2013-10-10 00:59:34,-0.01,0.95,0.00,25.90,27.77,30.41,6.08,30.04,1007.18,2045.06,3114.54,3064.83,3328.01,350.95,318.77,26.57,0000 0000 0000 0000 000000
2013-10-10 01:00:35,0.02,0.95,0.00,25.90,27.77,30.41,5.69,29.83,1007.16,2045.02,3114.31,3064.60,3328.00,349.98,317.75,26.57,0000 0000 0000 0000 000000
2013-10-10 01:01:35,0.07,0.95,0.00,25.90,27.77,30.41,5.78,29.71,1007.18,2045.04,3114.15,3064.42,3328.00,349.12,316.99,26.58,0000 0000 0000 0000 000000
2013-10-10 01:02:35,0.06,0.95,0.00,25.88,27.77,30.40,5.73,29.79,1007.11,2045.04,3114.10,3064.41,3328.00,348.95,316.89,26.59,0000 0000 0000 0000 000000
2013-10-10 01:03:35,0.02,0.95,0.00,25.86,27.77,30.42,6.02,30.08,1007.23,2045.04,3114.06,3064.41,3328.00,351.06,318.87,26.59,0000 0000 0000 0000 000000
2013-10-10 01:04:36,0.01,0.95,0.00,25.84,27.77,30.36,5.98,30.04,1007.19,2045.05,3114.07,3064.51,3328.00,350.00,316.85,26.60,0000 0000 0000 0000 000000
2013-10-10 01:05:36,-0.02,0.95,0.00,25.84,27.77,30.35,5.86,30.21,1007.19,2045.05,3114.06,3064.54,3328.00,349.93,317.84,26.60,0000 0000 0000 0000 000000
2013-10-10 01:06:36,-0.01,0.95,0.00,25.85,27.77,30.34,5.91,30.00,1007.21,2045.05,3114.06,3064.61,3328.00,350.59,318.45,26.61,0000 0000 0000 0000 000000
2013-10-10 01:07:36,0.00,0.95,0.00,25.87,27.77,30.36,6.10,30.04,1007.31,2045.05,3114.06,3064.60,3328.00,351.25,318.96,26.62,0000 0000 0000 0000 000000
2013-10-10 01:08:37,0.00,0.95,0.00,25.89,27.77,30.39,5.64,29.75,1007.27,2045.05,3114.05,3064.59,3328.00,349.28,317.58,26.62,0000 0000 0000 0000 000000
2013-10-10 01:09:37,0.01,0.95,0.00,25.89,27.77,30.38,6.04,30.46,1006.99,2045.09,3114.04,3064.63,3328.00,350.57,318.32,26.63,0000 0000 0000 0000 000000
2013-10-10 01:10:37,0.00,0.95,0.00,25.88,27.76,30.37,6.00,30.13,1007.20,2045.14,3114.05,3064.75,3328.00,350.73,318.68,26.63,0000 0000 0000 0000 000000
2013-10-10 01:11:37,0.01,0.95,0.00,25.88,27.75,30.44,5.73,29.79,1007.31,2045.21,3114.04,3064.83,3328.00,349.21,317.50,26.64,0000 0000 0000 0000 000000
2013-10-10 01:12:38,0.02,0.95,0.00,25.88,27.75,30.43,6.00,29.75,1007.33,2045.29,3114.03,3064.88,3328.00,350.39,318.27,26.64,0000 0000 0000 0000 000000
2013-10-10 01:13:38,0.04,0.95,0.00,25.88,27.75,30.42,5.77,30.13,1007.32,2045.30,3114.04,3064.90,3328.00,349.59,317.37,26.65,0000 0000 0000 0000 000000
2013-10-10 01:14:38,0.04,0.95,0.00,25.87,27.75,30.39,5.65,30.25,1007.15,2045.41,3114.03,3064.93,3328.01,348.33,316.35,26.66,0000 0000 0000 0000 000000
2013-10-10 01:15:38,0.04,0.95,0.00,25.88,27.75,30.36,5.95,30.13,1007.26,2045.44,3114.02,3064.93,3328.00,350.73,318.55,26.66,0000 0000 0000 0000 000000
2013-10-10 01:16:39,0.01,0.95,0.00,25.87,27.75,30.35,6.02,30.08,1007.31,2045.37,3114.06,3064.89,3328.00,350.16,318.18,26.67,0000 0000 0000 0000 000000
2013-10-10 01:17:39,-0.01,0.95,0.00,25.86,27.75,30.31,5.76,30.08,1007.32,2045.40,3114.03,3064.85,3328.00,349.86,317.55,26.67,0000 0000 0000 0000 000000
2013-10-10 01:18:39,-0.01,0.95,0.00,25.83,27.75,30.36,5.62,29.71,1007.32,2045.56,3114.01,3064.86,3328.00,349.29,317.32,26.68,0000 0000 0000 0000 000000
2013-10-10 01:19:40,0.14,0.95,0.00,25.85,27.75,30.35,5.67,29.96,1007.29,2045.72,3114.00,3064.80,3328.00,350.40,318.72,26.69,0000 0000 0000 0000 000000
2013-10-10 01:20:40,0.16,0.95,0.00,25.84,27.75,30.34,6.03,30.13,1007.32,2045.80,3114.00,3064.83,3328.00,350.60,318.50,26.69,0000 0000 0000 0000 000000
2013-10-10 01:21:40,0.06,0.95,0.00,25.86,27.75,30.34,5.95,30.04,1007.34,2045.77,3114.00,3064.66,3328.00,350.88,318.74,26.70,0000 0000 0000 0000 000000
2013-10-10 01:22:40,-0.01,0.95,0.00,25.85,27.75,30.37,5.92,30.13,1007.33,2045.78,3114.00,3064.58,3328.00,350.74,318.62,26.70,0000 0000 0000 0000 000000
2013-10-10 01:23:41,0.07,0.95,0.00,25.86,27.75,30.36,5.75,29.96,1007.34,2045.85,3114.00,3064.61,3328.00,349.76,317.72,26.71,0000 0000 0000 0000 000000
2013-10-10 01:24:41,0.03,0.95,0.00,25.85,27.75,30.34,5.83,30.00,1007.33,2045.83,3114.00,3064.44,3328.00,349.49,317.49,26.72,0000 0000 0000 0000 000000
2013-10-10 01:25:41,-0.01,0.95,0.00,25.85,27.75,30.33,5.99,30.17,1007.33,2045.68,3114.00,3064.22,3328.00,350.42,318.51,26.72,0000 0000 0000 0000 000000
2013-10-10 01:26:41,-0.05,0.95,0.00,25.86,27.74,30.41,5.88,30.17,1007.33,2045.72,3113.99,3064.22,3328.00,350.19,318.10,26.73,0000 0000 0000 0000 000000
2013-10-10 01:27:42,0.05,0.95,0.00,25.85,27.73,30.37,5.74,29.88,1007.34,2045.83,3113.98,3064.23,3328.00,349.62,317.33,26.73,0000 0000 0000 0000 000000
2013-10-10 01:28:42,0.09,0.95,0.00,25.87,27.73,30.38,5.89,30.04,1007.31,2045.83,3113.98,3064.16,3328.00,350.00,318.11,26.74,0000 0000 0000 0000 000000
2013-10-10 01:29:42,0.01,0.95,0.00,25.88,27.73,30.35,5.97,30.08,1007.33,2045.83,3113.98,3064.11,3328.00,350.46,318.59,26.74,0000 0000 0000 0000 000000
2013-10-10 01:30:43,0.03,0.95,0.00,25.88,27.72,30.34,5.56,29.92,1007.33,2045.88,3113.98,3064.11,3328.00,348.76,316.79,26.75,0000 0000 0000 0000 000000
2013-10-10 01:31:43,0.01,0.95,0.00,25.88,27.72,30.35,5.95,29.92,1007.34,2045.89,3113.99,3064.18,3328.00,350.94,318.95,26.76,0000 0000 0000 0000 000000
2013-10-10 01:32:43,0.00,0.95,0.00,25.86,27.72,30.39,5.74,29.83,1007.34,2045.94,3113.97,3064.17,3327.99,349.42,317.55,26.76,0000 0000 0000 0000 000000
2013-10-10 01:33:43,0.04,0.95,0.00,25.86,27.72,30.43,5.74,29.75,1007.34,2045.94,3113.98,3064.15,3327.99,349.50,316.95,26.77,0000 0000 0000 0000 000000
2013-10-10 01:34:43,-0.00,0.95,0.00,25.88,27.72,30.32,6.01,30.13,1007.34,2045.93,3113.99,3064.18,3327.99,350.81,318.66,26.77,0000 0000 0000 0000 000000
2013-10-10 01:35:44,-0.02,0.95,0.00,25.84,27.72,30.30,5.74,29.88,1007.34,2045.93,3113.99,3064.17,3327.99,350.05,318.13,26.78,0000 0000 0000 0000 000000
2013-10-10 01:36:44,0.01,0.95,0.00,25.84,27.72,30.34,5.65,29.96,1007.34,2045.92,3113.98,3064.11,3327.99,349.18,317.26,26.79,0000 0000 0000 0000 000000
2013-10-10 01:37:44,-0.01,0.95,0.00,25.88,27.72,30.33,5.98,29.88,1007.34,2045.94,3113.90,3064.07,3327.99,350.76,318.53,26.79,0000 0000 0000 0000 000000
2013-10-10 01:38:44,0.05,0.95,0.00,25.88,27.72,30.33,5.90,29.71,1007.34,2045.95,3113.80,3064.05,3327.99,350.28,317.85,26.80,0000 0000 0000 0000 000000
2013-10-10 01:39:45,0.01,0.95,0.00,25.87,27.72,30.35,5.98,29.92,1007.34,2045.96,3113.82,3064.07,3327.99,349.85,317.87,26.80,0000 0000 0000 0000 000000
2013-10-10 01:40:45,0.01,0.95,0.00,25.87,27.72,30.36,6.07,30.00,1007.35,2045.98,3113.84,3064.09,3327.98,350.74,318.60,26.81,0000 0000 0000 0000 000000
2013-10-10 01:41:45,0.00,0.95,0.00,25.87,27.72,30.29,5.85,30.42,1007.35,2045.97,3113.70,3064.06,3327.96,349.88,317.82,26.81,0000 0000 0000 0000 000000
2013-10-10 01:42:45,0.02,0.95,0.00,25.87,27.72,30.35,5.77,30.17,1007.34,2045.96,3113.64,3064.04,3327.93,350.20,318.10,26.82,0000 0000 0000 0000 000000
2013-10-10 01:43:46,-0.00,0.95,0.00,25.88,27.72,30.31,5.82,29.96,1007.34,2045.94,3113.57,3064.02,3327.89,349.72,317.25,26.83,0000 0000 0000 0000 000000
2013-10-10 01:44:46,0.01,0.95,0.00,25.88,27.71,30.37,5.84,30.33,1007.35,2045.94,3113.38,3064.01,3327.89,349.69,317.64,26.83,0000 0000 0000 0000 000000
2013-10-10 01:45:46,0.01,0.95,0.00,25.90,27.71,30.31,5.62,29.96,1007.35,2045.94,3113.44,3064.03,3327.95,349.41,317.37,26.84,0000 0000 0000 0000 000000
2013-10-10 01:46:46,0.00,0.95,0.00,25.88,27.71,30.35,5.89,30.00,1007.35,2045.95,3113.41,3064.02,3327.93,350.22,318.33,26.84,0000 0000 0000 0000 000000
2013-10-10 01:47:47,0.02,0.95,0.00,25.89,27.70,30.36,5.60,29.83,1007.36,2045.97,3113.52,3064.01,3327.96,349.08,317.08,26.85,0000 0000 0000 0000 000000
2013-10-10 01:48:47,-0.01,0.95,0.00,25.87,27.70,30.33,5.74,30.04,1007.36,2045.99,3113.65,3064.00,3327.96,349.13,317.20,26.86,0000 0000 0000 0000 000000
2013-10-10 01:49:47,-0.00,0.95,0.00,25.86,27.70,30.27,5.96,30.13,1007.36,2045.97,3113.61,3064.02,3327.96,351.36,319.19,26.86,0000 0000 0000 0000 000000
2013-10-10 01:50:47,0.00,0.95,0.00,25.85,27.70,30.33,6.04,30.00,1007.37,2045.98,3113.43,3064.03,3327.97,350.89,318.76,26.87,0000 0000 0000 0000 000000
2013-10-10 01:51:47,0.01,0.95,0.00,25.88,27.70,30.30,6.00,29.88,1007.40,2045.98,3113.27,3064.03,3327.96,350.38,318.55,26.87,0000 0000 0000 0000 000000
2013-10-10 01:52:47,0.01,0.95,0.00,25.89,27.70,30.29,6.02,29.92,1007.40,2045.96,3113.30,3064.02,3327.98,351.01,318.93,26.88,0000 0000 0000 0000 000000
2013-10-10 01:53:48,-0.01,0.95,0.00,25.92,27.70,30.33,5.86,29.88,1007.40,2045.97,3113.22,3064.05,3327.96,351.14,318.94,26.89,0000 0000 0000 0000 000000
2013-10-10 01:54:48,0.02,0.95,0.00,25.92,27.70,30.38,6.00,29.96,1007.42,2045.99,3113.11,3064.05,3327.91,351.14,319.06,26.89,0000 0000 0000 0000 000000
2013-10-10 01:55:48,0.01,0.95,0.00,25.90,27.70,30.32,5.69,29.83,1007.37,2045.99,3113.12,3064.04,3327.93,349.04,317.03,26.90,0000 0000 0000 0000 000000
2013-10-10 01:56:48,0.00,0.95,0.00,25.90,27.70,30.33,5.85,30.04,1007.35,2045.97,3113.11,3064.04,3327.94,350.16,317.70,26.90,0000 0000 0000 0000 000000
2013-10-10 01:57:49,0.00,0.95,0.00,25.90,27.70,30.27,5.83,29.67,1007.38,2045.98,3113.09,3064.05,3327.90,351.14,318.62,26.91,0000 0000 0000 0000 000000
2013-10-10 01:58:49,0.00,0.95,0.00,25.93,27.70,30.35,6.08,30.00,1007.45,2045.98,3113.06,3064.03,3327.86,350.27,318.44,26.91,0000 0000 0000 0000 000000
2013-10-10 01:59:49,0.02,0.96,0.00,25.92,27.70,30.38,5.59,29.92,1007.43,2045.98,3113.03,3064.01,3327.85,349.16,317.14,26.92,0000 0000 0000 0000 000000
2013-10-10 02:00:49,0.01,0.96,0.00,25.90,27.70,30.33,5.87,29.83,1007.43,2045.99,3113.01,3064.00,3327.71,350.45,318.38,26.93,0000 0000 0000 0000 000000
2013-10-10 02:01:50,0.02,0.96,0.00,25.90,27.70,30.30,5.72,29.83,1007.40,2045.99,3113.00,3064.00,3327.71,350.07,317.68,26.93,0000 0000 0000 0000 000000
2013-10-10 02:02:50,0.00,0.96,0.00,25.93,27.70,30.34,5.63,30.00,1007.38,2045.99,3113.01,3064.01,3327.75,348.88,316.86,26.94,0000 0000 0000 0000 000000
2013-10-10 02:03:50,0.00,0.96,0.00,25.95,27.70,30.28,5.77,29.83,1007.41,2045.98,3113.00,3064.00,3327.58,350.24,318.09,26.94,0000 0000 0000 0000 000000
2013-10-10 02:04:50,0.01,0.96,0.00,25.95,27.70,30.31,5.66,29.75,1007.49,2045.99,3113.00,3064.00,3327.47,349.22,317.19,26.95,0000 0000 0000 0000 000000
2013-10-10 02:05:51,0.02,0.96,0.00,25.95,27.70,30.28,5.86,30.29,1007.49,2045.99,3113.00,3064.00,3327.41,348.95,316.95,26.96,0000 0000 0000 0000 000000
2013-10-10 02:06:51,0.00,0.96,0.00,25.94,27.70,30.31,5.73,30.08,1007.47,2045.98,3113.00,3064.00,3327.26,349.27,317.23,26.96,0000 0000 0000 0000 000000
2013-10-10 02:07:51,0.00,0.96,0.00,25.92,27.70,30.35,5.64,29.92,1007.50,2045.98,3113.00,3064.00,3327.19,348.80,316.83,26.97,0000 0000 0000 0000 000000
2013-10-10 02:08:52,0.01,0.96,0.00,25.91,27.70,30.34,6.02,30.13,1007.62,2045.98,3113.00,3064.00,3327.17,351.11,319.03,26.97,0000 0000 0000 0000 000000
2013-10-10 02:09:52,0.00,0.96,0.00,25.93,27.70,30.29,5.91,30.17,1007.53,2045.99,3113.00,3064.00,3327.11,349.91,318.06,26.98,0000 0000 0000 0000 000000
2013-10-10 02:10:52,0.01,0.96,0.00,25.93,27.70,30.34,5.60,30.08,1007.50,2045.99,3113.00,3064.00,3327.08,348.70,317.21,26.98,0000 0000 0000 0000 000000
2013-10-10 02:11:52,0.00,0.96,0.00,25.95,27.70,30.36,5.77,30.17,1007.54,2045.99,3113.00,3064.00,3327.07,350.04,317.94,26.99,0000 0000 0000 0000 000000
2013-10-10 02:12:52,0.00,0.96,0.00,25.95,27.70,30.34,5.97,30.25,1007.57,2045.99,3112.99,3064.00,3327.03,350.63,318.48,27.00,0000 0000 0000 0000 000000
2013-10-10 02:13:52,0.00,0.96,0.00,25.98,27.70,30.31,5.55,30.17,1007.50,2045.98,3112.96,3064.00,3327.02,348.95,316.55,27.00,0000 0000 0000 0000 000000
2013-10-10 02:14:52,0.00,0.96,0.00,25.99,27.70,30.33,5.74,30.17,1007.51,2045.99,3112.98,3064.00,3327.02,349.28,317.02,27.01,0000 0000 0000 0000 000000
2013-10-10 02:15:52,0.00,0.96,0.00,25.98,27.70,30.36,5.91,30.04,1007.46,2045.99,3112.98,3064.00,3327.03,350.02,317.87,27.01,0000 0000 0000 0000 000000
2013-10-10 02:16:53,0.00,0.96,0.00,25.98,27.70,30.35,6.10,30.17,1007.37,2045.99,3112.98,3064.00,3327.02,351.30,319.00,27.02,0000 0000 0000 0000 000000
2013-10-10 02:17:53,0.00,0.96,0.00,25.97,27.70,30.37,6.01,30.00,1007.38,2045.99,3112.97,3063.99,3327.02,349.91,317.41,27.03,0000 0000 0000 0000 000000
2013-10-10 02:18:53,0.00,0.96,0.00,25.98,27.70,30.36,5.68,30.00,1007.41,2045.99,3112.96,3063.99,3327.01,349.45,317.30,27.03,0000 0000 0000 0000 000000
2013-10-10 02:19:53,0.00,0.96,0.00,25.98,27.70,30.28,6.01,30.25,1007.50,2045.99,3112.93,3063.97,3327.00,350.09,318.28,27.04,0000 0000 0000 0000 000000
2013-10-10 02:20:53,0.00,0.96,0.00,25.97,27.70,30.37,5.99,30.29,1007.54,2045.99,3112.94,3063.98,3327.01,351.13,318.90,27.04,0000 0000 0000 0000 000000
2013-10-10 02:21:54,0.00,0.96,0.00,25.97,27.70,30.38,5.75,29.96,1007.64,2045.99,3112.93,3063.99,3327.00,349.85,318.36,27.05,0000 0000 0000 0000 000000
2013-10-10 02:22:54,0.00,0.96,0.00,25.97,27.70,30.36,5.79,29.42,1007.69,2045.99,3112.92,3063.98,3327.00,350.18,318.38,27.05,0000 0000 0000 0000 000000
2013-10-10 02:23:54,0.00,0.96,0.00,25.98,27.70,30.33,5.85,29.46,1007.69,2045.99,3112.92,3063.99,3327.00,350.00,317.74,27.06,0000 0000 0000 0000 000000
2013-10-10 02:24:54,0.00,0.96,0.00,26.00,27.70,30.40,6.09,30.13,1007.74,2045.99,3112.84,3063.99,3327.01,350.88,318.86,27.07,0000 0000 0000 0000 000000
2013-10-10 02:25:55,0.01,0.96,0.00,25.99,27.70,30.31,5.61,29.83,1007.78,2045.99,3112.63,3063.98,3327.00,351.10,318.94,27.07,0000 0000 0000 0000 000000
2013-10-10 02:26:55,0.03,0.96,0.00,25.99,27.70,30.38,5.72,29.96,1007.80,2045.99,3112.73,3063.97,3327.00,349.39,317.39,27.08,0000 0000 0000 0000 000000
2013-10-10 02:27:55,-0.02,0.96,0.00,25.98,27.70,30.39,5.59,29.96,1007.81,2045.98,3112.71,3063.96,3327.00,348.86,316.91,27.08,0000 0000 0000 0000 000000
2013-10-10 02:28:55,0.00,0.96,0.00,26.01,27.70,30.33,5.59,29.83,1007.79,2045.99,3112.41,3063.97,3327.00,349.56,317.53,27.09,0000 0000 0000 0000 000000
2013-10-10 02:29:56,0.05,0.96,0.00,26.01,27.70,30.36,5.94,30.13,1007.80,2045.99,3112.22,3063.95,3327.00,349.68,317.64,27.10,0000 0000 0000 0000 000000
2013-10-10 02:30:56,0.03,0.96,0.00,26.02,27.70,30.38,6.15,30.17,1007.82,2045.99,3112.12,3063.90,3327.00,351.46,319.25,27.10,0000 0000 0000 0000 000000
2013-10-10 02:31:56,0.03,0.96,0.00,26.03,27.70,30.35,6.09,30.04,1007.83,2045.99,3112.06,3063.86,3327.00,351.18,318.98,27.11,0000 0000 0000 0000 000000
2013-10-10 02:32:57,0.01,0.96,0.00,26.02,27.70,30.36,6.04,30.25,1007.83,2045.99,3112.03,3063.80,3327.00,350.55,318.17,27.11,0000 0000 0000 0000 000000
2013-10-10 02:33:57,0.01,0.96,0.00,26.02,27.70,30.36,5.66,30.00,1007.83,2045.99,3112.01,3063.66,3327.00,349.89,317.95,27.12,0000 0000 0000 0000 000000
2013-10-10 02:34:57,0.04,0.96,0.00,26.02,27.70,30.35,5.75,30.00,1007.83,2045.99,3112.00,3063.58,3326.99,349.48,317.44,27.13,0000 0000 0000 0000 000000
2013-10-10 02:35:57,0.01,0.96,0.00,26.04,27.70,30.26,5.72,30.04,1007.83,2045.99,3112.00,3063.42,3326.99,349.30,316.90,27.13,0000 0000 0000 0000 000000